Stations météo

réclame
Mon MeteoGroup
Tortosa, Espagne (8238): Température de l'air & dewpoint: 11.07.2018 13:00:00 - 17.07.2018 13:00:00 (CEST)Tortosa, Espagne (8238): Vitesse du vent & gusts: 11.07.2018 13:00:00 - 17.07.2018 13:00:00 (CEST)Tortosa, Espagne (8238): Direction du vent: 11.07.2018 13:00:00 - 17.07.2018 13:00:00 (CEST)Tortosa, Espagne (8238): reduced air pressure: 11.07.2018 13:00:00 - 17.07.2018 13:00:00 (CEST)Tortosa, Espagne (8238): visibility: 11.07.2018 13:00:00 - 17.07.2018 13:00:00 (CEST)Tortosa, Espagne (8238): Quantités de précipitations: 11.07.2018 13:00:00 - 17.07.2018 13:00:00 (CEST)
Date & Time tt [°C] td [°C] ff [km/h] ff [knt] fx [km/h] fx [knt] dd ppp [hPa] vv [km] rr [mm]
17.07.2018 13:00:00 34,5 9,7 11 6 - - NNE 1017,1 20 0,0
17.07.2018 12:00:00 32,8 10,8 13 7 - - NNE 1017,6 20 0,0
17.07.2018 11:00:00 30,2 11,2 15 8 - - NNE 1018,0 15 -
17.07.2018 10:00:00 28,2 12,5 16 9 - - NNE 1018,1 18 0,0
17.07.2018 09:00:00 26,3 12,7 11 6 - - NNE 1018,3 20 0,0
17.07.2018 08:00:00 24,2 12,5 13 7 - - NNE 1018,1 20 -
17.07.2018 07:00:00 22,2 12,2 11 6 - - N 1017,7 20 0,0
17.07.2018 06:00:00 22,7 12,0 11 6 - - N 1017,3 20 0,0
17.07.2018 05:00:00 23,1 12,4 9 5 - - N 1017,1 20 -
17.07.2018 04:00:00 23,8 12,1 9 5 - - NNW 1017,2 20 0,0
17.07.2018 03:00:00 24,4 12,0 15 8 - - NNW 1017,2 20 0,0
17.07.2018 02:00:00 24,6 12,5 13 7 - - N 1017,1 20 -
17.07.2018 01:00:00 25,2 12,4 15 8 - - N 1017,2 20 0,0
17.07.2018 00:00:00 25,9 12,0 13 7 - - NNW 1017,1 20 0,0
16.07.2018 23:00:00 26,8 12,1 11 6 - - NNW 1016,7 20 -
16.07.2018 22:00:00 27,8 12,2 11 6 - - NNW 1015,7 20 0,0
16.07.2018 21:00:00 29,5 11,5 15 8 - - W 1015,0 20 0,0
16.07.2018 20:00:00 31,4 11,2 11 6 - - NW 1013,9 8 -
16.07.2018 19:00:00 33,2 9,3 15 8 - - NW 1013,4 20 0,0
16.07.2018 18:00:00 34,4 9,6 9 5 - - WNW 1013,3 20 0,0
16.07.2018 17:00:00 33,0 10,9 18 10 - - NW 1013,2 8 -
16.07.2018 16:00:00 33,1 11,6 16 9 - - NW 1013,1 20 0,0
16.07.2018 15:00:00 33,0 13,1 22 12 - - NW 1013,4 20 0,0
16.07.2018 14:00:00 33,0 14,6 18 10 - - NW 1012,7 8 -
16.07.2018 13:00:00 31,1 14,3 24 13 76 41 NW 1012,1 20 0,0
16.07.2018 12:00:00 29,2 13,8 35 19 81 44 WNW 1011,1 20 0,0
16.07.2018 11:00:00 28,5 13,2 24 13 - - NW 1010,8 8 -
16.07.2018 10:00:00 26,8 13,2 29 16 81 44 WNW 1010,5 19 0,0
16.07.2018 09:00:00 25,1 13,3 18 10 - - N 1011,3 19 0,0
16.07.2018 08:00:00 25,7 13,2 21 11 - - NW 1011,8 10 -
16.07.2018 07:00:00 24,8 13,0 15 8 - - NW 1010,9 20 0,0
16.07.2018 06:00:00 24,0 21,3 8 4 - - WSW 1010,6 14 0,0
16.07.2018 05:00:00 23,1 21,5 5 3 - - W 1010,2 9 -
16.07.2018 04:00:00 23,4 21,5 4 2 - - WSW 1010,3 7 0,0
16.07.2018 03:00:00 24,0 21,9 5 3 - - NW 1011,0 9 0,0
16.07.2018 02:00:00 24,7 22,4 4 2 - - WSW 1011,1 8 -
16.07.2018 01:00:00 25,2 22,5 5 3 - - S 1011,7 2,3 0,0
16.07.2018 00:00:00 25,6 22,5 8 4 - - S 1011,8 2,9 0,0
15.07.2018 23:00:00 25,9 22,0 8 4 - - S 1011,8 17 -
15.07.2018 22:00:00 26,7 22,3 11 6 - - SE 1011,3 17 0,0
15.07.2018 21:00:00 27,6 22,3 11 6 - - SE 1011,4 18 0,0
15.07.2018 20:00:00 29,4 22,6 15 8 - - SE 1011,1 5 -
15.07.2018 19:00:00 31,9 22,9 18 10 - - SSE 1011,4 20 0,0
15.07.2018 18:00:00 33,2 20,7 15 8 - - SE 1011,7 20 0,0
15.07.2018 17:00:00 34,0 21,1 13 7 - - SE 1012,1 5 -
15.07.2018 16:00:00 33,4 21,6 16 9 - - SE 1012,4 20 0,0
15.07.2018 15:00:00 35,3 21,6 16 9 - - SE 1012,8 20 0,0
15.07.2018 14:00:00 35,3 21,9 13 7 - - SSE 1013,4 6 -
15.07.2018 13:00:00 33,8 21,9 11 6 - - SSE 1014,2 20 0,0
15.07.2018 12:00:00 32,1 21,6 8 4 - - S 1014,7 20 0,0
15.07.2018 11:00:00 30,5 22,7 9 5 - - S 1014,8 6 -
15.07.2018 10:00:00 28,5 22,0 5 3 - - S 1015,0 20 0,0
15.07.2018 09:00:00 24,8 21,3 4 2 - - NNE 1015,1 19 0,0
15.07.2018 08:00:00 22,1 20,0 4 2 - - N 1015,2 5 -
15.07.2018 07:00:00 21,0 19,5 5 3 - - NNW 1014,8 12 0,0
15.07.2018 06:00:00 21,4 19,7 4 2 - - N 1014,4 14 0,0
15.07.2018 05:00:00 22,2 20,3 2 1 - - WSW 1014,5 14 -
15.07.2018 04:00:00 22,4 19,9 8 4 - - N 1014,5 17 0,0
15.07.2018 03:00:00 23,2 20,5 5 3 - - SW 1014,6 17 0,0
15.07.2018 02:00:00 23,7 21,0 4 2 - - S 1014,9 16 -
15.07.2018 01:00:00 24,2 20,7 9 5 - - S 1015,2 20 0,0
15.07.2018 00:00:00 24,7 20,6 8 4 - - SSE 1015,0 20 0,0
14.07.2018 23:00:00 25,4 20,9 8 4 - - SE 1015,2 20 -
14.07.2018 22:00:00 26,2 21,2 11 6 - - SSE 1014,7 20 0,0
14.07.2018 21:00:00 27,6 20,2 13 7 - - SSE 1014,3 20 0,0
14.07.2018 20:00:00 29,7 18,8 11 6 - - SE 1014,4 8 -
14.07.2018 19:00:00 31,1 17,8 15 8 - - SE 1014,4 20 0,0
14.07.2018 18:00:00 31,9 16,6 16 9 - - SE 1014,4 20 0,0
14.07.2018 17:00:00 33,3 15,8 13 7 - - SE 1014,9 8 -
14.07.2018 16:00:00 34,1 17,3 16 9 - - SSE 1015,4 20 0,0
14.07.2018 15:00:00 34,9 15,8 16 9 - - SSE 1015,8 20 0,0
14.07.2018 14:00:00 34,6 16,4 15 8 - - SSE 1016,0 10 -
14.07.2018 13:00:00 33,9 15,8 11 6 - - S 1016,3 20 0,0
14.07.2018 12:00:00 32,3 14,4 8 4 - - S 1016,4 20 0,0
14.07.2018 11:00:00 30,6 14,7 8 4 - - S 1016,8 10 -
14.07.2018 10:00:00 27,6 18,0 4 2 - - ESE 1016,9 20 0,0
14.07.2018 09:00:00 24,4 18,6 4 2 - - N 1016,8 20 0,0
14.07.2018 08:00:00 21,1 18,7 5 3 - - NNW 1016,4 7 -
14.07.2018 07:00:00 20,1 18,6 8 4 - - NNW 1016,2 14 0,0
14.07.2018 06:00:00 20,7 18,6 4 2 - - NNW 1015,7 18 0,0
14.07.2018 05:00:00 21,4 19,7 5 3 - - N 1015,7 17 -
14.07.2018 04:00:00 21,9 20,0 5 3 - - N 1015,9 17 0,0
14.07.2018 03:00:00 22,8 20,3 8 4 - - WNW 1016,2 20 0,0
14.07.2018 02:00:00 23,0 20,1 2 1 - - SSW 1016,6 20 -
14.07.2018 01:00:00 23,5 20,2 5 3 - - SW 1016,9 20 0,0
14.07.2018 00:00:00 24,1 20,2 4 2 - - S 1016,9 20 0,0
13.07.2018 23:00:00 24,7 20,0 5 3 - - SSW 1017,1 20 -
13.07.2018 22:00:00 25,4 19,5 5 3 - - SSE 1016,6 20 0,0
13.07.2018 21:00:00 27,0 18,3 11 6 - - SSE 1016,0 20 0,0
13.07.2018 20:00:00 28,7 17,6 11 6 - - S 1015,5 10 -
13.07.2018 19:00:00 29,0 17,2 8 4 - - ESE 1015,7 20 0,0
13.07.2018 18:00:00 30,5 15,8 11 6 - - ESE 1016,3 20 0,0
13.07.2018 17:00:00 30,1 14,6 13 7 - - ESE 1016,6 10 -
13.07.2018 16:00:00 - - - - - - - - - -
13.07.2018 15:00:00 - - - - - - - - - -
13.07.2018 14:00:00 32,3 14,4 18 10 - - SE 1016,6 12 -
13.07.2018 13:00:00 31,7 13,9 11 6 - - ESE 1016,5 20 0,0
13.07.2018 12:00:00 30,9 14,5 8 4 - - SE 1016,8 20 0,0
13.07.2018 11:00:00 29,6 15,7 5 3 - - S 1016,9 10 -
13.07.2018 10:00:00 27,5 20,3 5 3 - - S 1017,5 19 0,0
13.07.2018 09:00:00 24,6 21,1 4 2 - - N 1017,2 20 0,0
13.07.2018 08:00:00 22,3 20,2 4 2 - - N 1017,1 8 -
13.07.2018 07:00:00 21,2 19,8 0 0 - - N 1017,2 11 0,0
13.07.2018 06:00:00 21,7 20,3 4 2 - - NNW 1016,8 8 0,0
13.07.2018 05:00:00 22,7 20,8 4 2 - - N 1016,8 17 -
13.07.2018 04:00:00 23,1 20,4 4 2 - - ENE 1017,0 20 0,0
13.07.2018 03:00:00 23,5 21,0 4 2 - - SE 1017,3 18 0,0
13.07.2018 02:00:00 24,1 21,4 2 1 - - E 1017,2 19 -
13.07.2018 01:00:00 24,6 22,1 2 1 - - S 1017,0 18 0,0
13.07.2018 00:00:00 24,9 22,0 5 3 - - SSW 1016,9 19 0,0
12.07.2018 23:00:00 25,1 21,8 8 4 - - S 1016,5 20 -
12.07.2018 22:00:00 25,4 21,5 5 3 - - SSE 1015,7 20 0,0
12.07.2018 21:00:00 26,4 20,9 8 4 - - SSE 1015,2 20 0,0
12.07.2018 20:00:00 27,7 21,3 9 5 - - ESE 1014,7 10 -
12.07.2018 19:00:00 29,5 21,2 15 8 - - ESE 1014,0 20 0,0
12.07.2018 18:00:00 31,5 20,8 13 7 - - SSE 1013,7 20 0,0
12.07.2018 17:00:00 31,5 20,1 15 8 - - SE 1013,9 8 -
12.07.2018 16:00:00 32,0 19,6 13 7 - - SE 1014,2 20 0,0
12.07.2018 15:00:00 31,5 20,1 13 7 - - ESE 1014,2 20 0,0
12.07.2018 14:00:00 33,1 20,3 16 9 - - SSE 1014,0 8 -
12.07.2018 13:00:00 31,8 18,4 5 3 - - SSE 1014,2 20 0,0
12.07.2018 12:00:00 30,5 17,9 5 3 - - E 1014,2 20 0,0
12.07.2018 11:00:00 28,6 18,7 4 2 - - S 1014,3 8 -
12.07.2018 10:00:00 26,6 19,5 5 3 - - NNW 1014,3 17 0,0
12.07.2018 09:00:00 24,0 20,1 8 4 - - N 1014,0 20 0,0
12.07.2018 08:00:00 20,8 20,1 13 7 - - N 1013,8 8 -
12.07.2018 07:00:00 19,8 19,3 8 4 - - NNW 1013,7 5 0,0
12.07.2018 06:00:00 19,9 19,4 5 3 - - NNW 1013,8 3,8 0,0
12.07.2018 05:00:00 20,1 19,6 8 4 - - N 1014,0 3,9 -
12.07.2018 04:00:00 20,4 19,9 5 3 - - N 1014,3 3,1 0,0
12.07.2018 03:00:00 20,6 19,8 2 1 - - E 1014,5 9 0,0
12.07.2018 02:00:00 20,7 19,9 8 4 - - NW 1014,7 10 -
12.07.2018 01:00:00 20,8 19,6 15 8 - - WNW 1014,8 18 3,0
12.07.2018 00:00:00 21,4 20,4 11 6 - - SE 1013,7 6 0,8
11.07.2018 23:00:00 21,5 20,1 11 6 - - E 1011,8 4,7 -
11.07.2018 22:00:00 22,1 20,2 8 4 - - SE 1014,0 13 0,2
11.07.2018 21:00:00 23,2 22,2 5 3 - - SSW 1012,8 4,3 0,6
11.07.2018 20:00:00 23,2 22,0 5 3 - - W 1013,3 7 -
11.07.2018 19:00:00 23,6 22,0 5 3 - - S 1013,5 3,3 5,0
11.07.2018 18:00:00 27,3 22,3 9 5 - - WSW 1014,6 7 0,6
11.07.2018 17:00:00 30,2 17,3 16 9 - - SE 1012,2 10 -
11.07.2018 16:00:00 32,4 17,5 18 10 - - ESE 1012,1 20 0,0
11.07.2018 15:00:00 33,8 17,9 16 9 - - SE 1012,9 20 0,0
11.07.2018 14:00:00 33,8 17,5 18 10 - - SSE 1013,1 12 -
11.07.2018 13:00:00 32,7 16,1 8 4 - - S 1013,4 20 0,0

tt = Température de l'air
td = dewpoint
ff = Vitesse du vent
fx = gusts
dd = Direction du vent
ppp = reduced air pressure
vv = visibility
rr = Quantités de précipitations

stations d'obs. à proximité